This is the latest recevied weather packets stored in our database for station/object SP5MRF. If no packets are shown the sender has not sent any weather packets the latest 1 day(s).
| Time | Temp. | Humidity | Pressure | Rain* | Wind** | Luminosity | Snow |
|---|---|---|---|---|---|---|---|
| 1778026438 | 14.44° C | 75% | 1001.4 hPa | 0 mm | 0 m/s | - | - |
| 1778025956 | 14.44° C | 75% | 1001.5 hPa | 0 mm | 0 m/s | - | - |
| 1778025476 | 14.44° C | 74% | 1001.7 hPa | 0 mm | 0 m/s | - | - |
| 1778024996 | 15° C | 73% | 1001.5 hPa | 0 mm | 0 m/s | - | - |
| 1778024516 | 15° C | 72% | 1001.6 hPa | 0 mm | 0 m/s | - | - |
| 1778024036 | 15° C | 71% | 1001.8 hPa | 0 mm | 0 m/s | - | - |
| 1778023556 | 15° C | 70% | 1001.7 hPa | 0 mm | 0 m/s | - | - |
| 1778023076 | 15.56° C | 70% | 1001.6 hPa | 0 mm | 0 m/s | - | - |
| 1778022596 | 15.56° C | 69% | 1001.5 hPa | 0 mm | 0 m/s | - | - |
| 1778022116 | 16.11° C | 69% | 1001.5 hPa | 0 mm | 0 m/s | - | - |
| 1778021636 | 16.11° C | 70% | 1001.3 hPa | 0 mm | 0 m/s | - | - |
| 1778021156 | 16.67° C | 69% | 1001.3 hPa | 0 mm | 0 m/s | - | - |
| 1778020676 | 16.67° C | 69% | 1001.3 hPa | 0 mm | 0 m/s | - | - |
| 1778020196 | 16.67° C | 68% | 1001.2 hPa | 0 mm | 0 m/s | - | - |
| 1778019716 | 17.22° C | 68% | 1001.4 hPa | 0 mm | 0 m/s | - | - |
| 1778018276 | 17.22° C | 68% | 1001.4 hPa | 0 mm | 0 m/s | - | - |
| 1778017796 | 17.78° C | 67% | 1001.5 hPa | 0 mm | 0.89 m/s, 45° | - | - |
| 1778017316 | 17.78° C | 66% | 1001.5 hPa | 0 mm | 0 m/s | - | - |
| 1778016837 | 17.78° C | 66% | 1001.5 hPa | 0 mm | 0 m/s | - | - |
| 1778015877 | 18.33° C | 63% | 1001.5 hPa | 0 mm | 0 m/s | - | - |
| 1778015396 | 18.33° C | 59% | 1001.5 hPa | 0 mm | 0 m/s | - | - |
| 1778014916 | 18.89° C | 57% | 1001.5 hPa | 0 mm | 0 m/s | - | - |
| 1778014436 | 18.89° C | 51% | 1001.5 hPa | 0 mm | 0 m/s | - | - |
| 1778013957 | 18.89° C | 46% | 1001.4 hPa | 0 mm | 0 m/s | - | - |
| 1778013476 | 18.89° C | 42% | 1001.4 hPa | 0 mm | 0 m/s | - | - |
* Rain latest hour (hover to see other rain measurements)
** Current wind speed in m/s (hover to see current wind gust speed)